Regional Weather Roundup
Issued by NWS Newport/Morehead, NC

Current Version | Previous Version | Graphics & Text | Print | Product List | Glossary Off
Versions: 1 2 3 4 5 6 7 8 9 10 11 12 13 14 15 16 17 18 19 20 21 22 23 24 25 26 27 28 29 30 31 32 33 34 35 36 37 38 39 40 41 42 43 44 45 46 47 48 49 50

592
ASUS42 KMHX 191113
RWRMHX
WEATHER ROUNDUP FOR EASTERN NORTH CAROLINA
NATIONAL WEATHER SERVICE NEWPORT/MOREHEAD CITY NC
600 AM EST SUN NOV 19 2017

NOTE: "FAIR" INDICATES FEW OR NO CLOUDS BELOW 12,000 FEET
WITH NO SIGNIFICANT WEATHER AND/OR OBSTRUCTIONS TO VISIBILITY

NCZ015>017-031-032-045>047-102-103-191200-
NORTH COAST

CITY           SKY/WX    TMP DP  RH WIND       PRES   REMARKS
EDENTON        RAIN      68  58  70 SW16G26   29.55S
ELIZABETH CITY LGT RAIN  65  58  78 SW20G28   29.53S
KITTY HAWK     CLOUDY    65  53  65 SW12G22   29.54S
MANTEO         CLOUDY    66  54  66 SW26G35   29.56S

$$

NCZ045>047-081-094-103-104-191200-
CENTRAL COAST

CITY           SKY/WX    TMP DP  RH WIND       PRES   REMARKS
FRISCO         MOCLDY    67  62  84 SW20G28   29.62S

$$

NCZ095-097-098-100-101-191200-
SOUTHERN COAST

CITY           SKY/WX    TMP DP  RH WIND       PRES   REMARKS
BEAUFORT       CLOUDY    68  62  81 SW25G33   29.64S
CEDAR ISLAND   NOT AVBL
JACKSONVILLE   NOT AVBL
PINEY ISLAND   NOT AVBL
WILMINGTON     CLOUDY    68  58  70 SW24G33   29.67R


$$

NCZ011>013-027>030-043-044-078>080-089-090>093-098-191200-
COASTAL PLAIN

CITY           SKY/WX    TMP DP  RH WIND       PRES   REMARKS
AHOSKIE        LGT RAIN  58  58  99 CALM        N/A
CLINTON        CLOUDY    63  60  91 SW13      29.64R
ELIZABETHTOWN  NOT AVBL
GOLDSBORO      LGT RAIN  63  59  88 SW16      29.59R
GREENVILLE     LGT RAIN  63  59  88 SW10G20   29.62R
HAVELOCK       NOT AVBL
KENANSVILLE    RAIN      64  57  77 SW12G22   29.63R
KINSTON        LGT RAIN  63  59  87 SW9G18    29.61R
NEW BERN       CLOUDY    67  57  70 SW17G32   29.62R
RICHLANDS      LGT RAIN  66  58  75 SW16G24   29.65R
ROCKY MOUNT    LGT RAIN  59  57  93 W12G17    29.61R
WASHINGTON     RAIN      65  57  76 SW22G28   29.59R
WHITEVILLE     CLOUDY    64  58  81 SW10      29.67S

$$

AMZ130-135-150-152-154-156-158-170-250-252-270-ANZ085-086-088-633-658-670-191200-
MARINE OBSERVATIONS

STATION/POSITION TIME  TEMP    WIND        PRES    WAVE   SWELL
                       AIR SEA DIR/SP/G            HT/PER HT/PER
                 (UTC) (F)     (DEG/KT/KT) (MB)    (FT/S) (FT/S)
CHESAPEAKE LIGHT NOT AVBL
64 E VA BEACH    1050   65 62  210/ 27/ 33  999.1    8/ 7
DUCK             NOT AVBL
2 E DUCK         1100      62                N/A     3/ 7
OREGON INLET     NOT AVBL
13E OREGON INLT  1048      62                N/A     5/ 8
HATTERAS CG      NOT AVBL
DIAMOND BUOY     1050   70 65  230/ 23/ 31 1003.5   10/ 8   2/15
CAPE LOOKOUT     1100          220/ 16/ 20 1004.1
BEAUFORT LAB     NOT AVBL
30 SE NEW RVR IN 1008   71 70  210/ 21/ 27 1004.3
30 SE NEW RVR IN 1030      70                N/A    10/ 8
27 SE WRIGHTSVLE 1008   71 68  220/ 25/ 37 1004.3
5 SE WRIGHTSVLE  1008   67 64  230/ 17/ 25 1004.3
225 S CAPE HAT   1050   75 77  210/ 21/ 25 1010.3    5/ 5   2/ 9
41 SE CHARLESTON 1100   73 74  230/ 27/ 33 1006.8

$$




USA.gov is the U.S. government's official web portal to all federal, state and local government web resources and services.